| time (UTC) | temp C | wind direction | speed KPH | gust KPH | rain 1hr cm | rain 24hr cm | rain mn cm | humidity % | barometer mb |
| 20260508055100 | 6 | 0 | 0.0 | 0.0 | 0.00 | 0.00 | 0.00 | 80 | 1012.8 |
| 20260508054605 | 6 | 0 | 0.0 | 0.0 | 0.00 | 0.00 | 0.00 | 80 | 1012.8 |
| 20260508054101 | 6 | 0 | 0.0 | 0.0 | 0.00 | 0.00 | 0.00 | 80 | 1013.0 |
| 20260508053559 | 6 | 0 | 0.0 | 0.0 | 0.00 | 0.00 | 0.00 | 80 | 1013.0 |
| 20260508053105 | 6 | 0 | 0.0 | 0.0 | 0.00 | 0.00 | 0.00 | 79 | 1013.0 |
| 20260508052601 | 6 | 0 | 0.0 | 0.0 | 0.00 | 0.00 | 0.00 | 79 | 1013.1 |
| 20260508052103 | 6 | 0 | 0.0 | 0.0 | 0.00 | 0.00 | 0.00 | 79 | 1013.2 |
| 20260508051600 | 6 | 0 | 0.0 | 0.0 | 0.00 | 0.00 | 0.00 | 79 | 1013.2 |
| 20260508051100 | 5 | 0 | 0.0 | 0.0 | 0.00 | 0.00 | 0.00 | 79 | 1013.1 |
| 20260508050601 | 5 | 0 | 0.0 | 0.0 | 0.00 | 0.00 | 0.00 | 79 | 1013.3 |
| 20260508045600 | 5 | 0 | 0.0 | 0.0 | 0.00 | 0.00 | 0.00 | 79 | 1013.4 |
| 20260508045101 | 5 | 0 | 0.0 | 0.0 | 0.00 | 0.00 | 0.00 | 78 | 1013.4 |
| 20260508044559 | 5 | 0 | 0.0 | 0.0 | 0.00 | 0.00 | 0.00 | 78 | 1013.4 |
| 20260508044059 | 5 | 0 | 0.0 | 0.0 | 0.00 | 0.00 | 0.00 | 78 | 1013.4 |
| 20260508043559 | 5 | 0 | 0.0 | 0.0 | 0.00 | 0.00 | 0.00 | 79 | 1013.2 |
| 20260508043103 | 5 | 0 | 0.0 | 0.0 | 0.00 | 0.00 | 0.00 | 79 | 1013.4 |
| 20260508042600 | 5 | 0 | 0.0 | 0.0 | 0.00 | 0.00 | 0.00 | 79 | 1013.3 |
| 20260508042102 | 5 | 0 | 0.0 | 0.0 | 0.00 | 0.00 | 0.00 | 80 | 1013.3 |
| 20260508041605 | 5 | 0 | 0.0 | 0.0 | 0.00 | 0.00 | 0.00 | 81 | 1013.3 |
| 20260508041100 | 5 | 0 | 0.0 | 0.0 | 0.00 | 0.00 | 0.00 | 80 | 1013.3 |
| 20260508040600 | 5 | 0 | 0.0 | 0.0 | 0.00 | 0.00 | 0.00 | 80 | 1013.3 |
| 20260508040111 | 5 | 0 | 0.0 | 0.0 | 0.00 | 0.00 | 0.00 | 80 | 1013.3 |
| 20260508035600 | 5 | 0 | 0.0 | 0.0 | 0.00 | 0.00 | 0.00 | 80 | 1013.3 |
| 20260508035100 | 5 | 0 | 0.0 | 0.0 | 0.00 | 0.00 | 0.00 | 81 | 1013.3 |
| 20260508034600 | 5 | 0 | 0.0 | 0.0 | 0.00 | 0.00 | 0.00 | 80 | 1013.3 |
| 20260508034100 | 5 | 0 | 0.0 | 0.0 | 0.00 | 0.00 | 0.00 | 79 | 1013.2 |
| 20260508033604 | 5 | 0 | 0.0 | 0.0 | 0.00 | 0.00 | 0.00 | 79 | 1013.4 |
| 20260508033103 | 5 | 0 | 0.0 | 0.0 | 0.00 | 0.00 | 0.00 | 78 | 1013.2 |
| 20260508032600 | 5 | 0 | 0.0 | 0.0 | 0.00 | 0.00 | 0.00 | 78 | 1013.2 |
| 20260508032059 | 5 | 0 | 0.0 | 0.0 | 0.00 | 0.00 | 0.00 | 78 | 1013.2 |
| 20260508031608 | 5 | 0 | 0.0 | 0.0 | 0.00 | 0.00 | 0.00 | 78 | 1013.1 |
| 20260508031100 | 5 | 0 | 0.0 | 0.0 | 0.00 | 0.00 | 0.00 | 78 | 1013.1 |
| 20260508030600 | 5 | 0 | 0.0 | 0.0 | 0.00 | 0.00 | 0.00 | 78 | 1013.1 |
| 20260508030126 | 5 | 0 | 0.0 | 0.0 | 0.00 | 0.00 | 0.00 | 78 | 1013.1 |
| 20260508025559 | 5 | 0 | 0.0 | 0.0 | 0.00 | 0.00 | 0.00 | 78 | 1013.3 |
| 20260508025059 | 5 | 0 | 0.0 | 0.0 | 0.00 | 0.00 | 0.00 | 78 | 1013.3 |
| 20260508024606 | 5 | 0 | 0.0 | 0.0 | 0.00 | 0.00 | 0.00 | 78 | 1013.2 |
| 20260508024059 | 5 | 0 | 0.0 | 0.0 | 0.00 | 0.00 | 0.00 | 77 | 1013.2 |
| 20260508023600 | 5 | 0 | 0.0 | 0.0 | 0.00 | 0.00 | 0.00 | 76 | 1013.3 |
| 20260508023059 | 5 | 0 | 0.0 | 0.0 | 0.00 | 0.00 | 0.00 | 75 | 1013.2 |
| 20260508022600 | 6 | 0 | 0.0 | 0.0 | 0.00 | 0.00 | 0.00 | 73 | 1013.2 |
| 20260508022100 | 6 | 0 | 0.0 | 0.0 | 0.00 | 0.00 | 0.00 | 73 | 1013.1 |
| 20260508021559 | 6 | 0 | 0.0 | 0.0 | 0.00 | 0.00 | 0.00 | 73 | 1013.2 |
| 20260508021100 | 6 | 0 | 0.0 | 0.0 | 0.00 | 0.00 | 0.00 | 72 | 1013.1 |
| 20260508020600 | 6 | 0 | 0.0 | 0.0 | 0.00 | 0.00 | 0.00 | 71 | 1013.1 |
| 20260508020059 | 6 | 0 | 0.0 | 0.0 | 0.00 | 0.00 | 0.00 | 71 | 1013.1 |
| 20260508015600 | 6 | 0 | 0.0 | 0.0 | 0.00 | 0.00 | 0.00 | 71 | 1013.1 |
| 20260508015100 | 6 | 0 | 0.0 | 0.0 | 0.00 | 0.00 | 0.00 | 69 | 1013.0 |
| 20260508014601 | 7 | 0 | 0.0 | 0.0 | 0.00 | 0.00 | 0.00 | 68 | 1013.0 |
| 20260508014100 | 7 | 0 | 0.0 | 0.0 | 0.00 | 0.00 | 0.00 | 63 | 1013.0 |
| 20260508013600 | 7 | 0 | 0.0 | 0.0 | 0.00 | 0.00 | 0.00 | 63 | 1013.0 |
| 20260508013059 | 7 | 0 | 0.0 | 0.0 | 0.00 | 0.00 | 0.00 | 61 | 1012.9 |
| 20260508012600 | 7 | 0 | 0.0 | 0.0 | 0.00 | 0.00 | 0.00 | 60 | 1012.9 |
| 20260508012103 | 8 | 0 | 0.0 | 0.0 | 0.00 | 0.00 | 0.00 | 59 | 1012.9 |
| 20260508011611 | 8 | 0 | 0.0 | 0.0 | 0.00 | 0.00 | 0.00 | 59 | 1012.9 |
| 20260508011100 | 8 | 0 | 0.0 | 0.0 | 0.00 | 0.00 | 0.00 | 56 | 1012.8 |
| 20260508010600 | 8 | 0 | 0.0 | 0.0 | 0.00 | 0.00 | 0.00 | 55 | 1012.8 |
| 20260508010108 | 8 | 0 | 0.0 | 0.0 | 0.00 | 0.00 | 0.00 | 53 | 1012.8 |
| 20260508005600 | 9 | 0 | 0.0 | 0.0 | 0.00 | 0.00 | 0.00 | 53 | 1012.8 |
| 20260508005100 | 9 | 0 | 0.0 | 0.0 | 0.00 | 0.00 | 0.00 | 54 | 1012.8 |
| 20260508004605 | 9 | 0 | 0.0 | 0.0 | 0.00 | 0.00 | 0.00 | 53 | 1012.8 |
| 20260508004059 | 9 | 0 | 0.0 | 1.6 | 0.00 | 0.00 | 0.00 | 52 | 1012.8 |
| 20260508003600 | 10 | 0 | 0.0 | 1.6 | 0.00 | 0.00 | 0.00 | 50 | 1012.8 |
| 20260508003112 | 10 | 0 | 0.0 | 1.6 | 0.00 | 0.00 | 0.00 | 49 | 1012.7 |
| 20260508002600 | 10 | 0 | 0.0 | 0.0 | 0.00 | 0.00 | 0.00 | 48 | 1012.7 |
| 20260508002059 | 10 | 0 | 0.0 | 1.6 | 0.00 | 0.00 | 0.00 | 46 | 1012.7 |
| 20260508001559 | 10 | 0 | 0.0 | 4.8 | 0.00 | 0.00 | 0.00 | 46 | 1012.6 |
| 20260508001100 | 10 | 0 | 0.0 | 4.8 | 0.00 | 0.00 | 0.00 | 47 | 1012.5 |
| 20260508000600 | 10 | 290 | 0.0 | 3.2 | 0.00 | 0.00 | 0.00 | 46 | 1012.5 |
| 20260508000101 | 10 | 0 | 0.0 | 3.2 | 0.00 | 0.00 | 0.00 | 46 | 1012.4 |
| 20260507235600 | 10 | 0 | 0.0 | 3.2 | 0.00 | 0.00 | 0.00 | 45 | 1012.3 |
| 20260507235100 | 11 | 51 | 0.0 | 3.2 | 0.00 | 0.00 | 0.00 | 49 | 1012.3 |
| 20260507234559 | 11 | 0 | 0.0 | 3.2 | 0.00 | 0.00 | 0.00 | 44 | 1012.3 |
| 20260507234100 | 11 | 0 | 0.0 | 3.2 | 0.00 | 0.00 | 0.00 | 45 | 1012.2 |
| 20260507233600 | 11 | 0 | 0.0 | 3.2 | 0.00 | 0.00 | 0.00 | 47 | 1012.2 |
| 20260507233059 | 11 | 191 | 1.6 | 3.2 | 0.00 | 0.00 | 0.00 | 46 | 1012.3 |
| 20260507232600 | 11 | 347 | 0.0 | 3.2 | 0.00 | 0.00 | 0.00 | 44 | 1012.3 |
| 20260507232059 | 11 | 285 | 0.0 | 8.0 | 0.00 | 0.00 | 0.00 | 44 | 1012.3 |
| 20260507231617 | 11 | 329 | 1.6 | 8.0 | 0.00 | 0.00 | 0.00 | 45 | 1012.2 |
| 20260507231059 | 11 | 323 | 1.6 | 8.0 | 0.00 | 0.00 | 0.00 | 43 | 1012.3 |
| 20260507230559 | 11 | 276 | 0.0 | 6.4 | 0.00 | 0.00 | 0.00 | 42 | 1012.3 |
| 20260507230100 | 11 | 44 | 1.6 | 6.4 | 0.00 | 0.00 | 0.00 | 43 | 1012.3 |
| 20260507225559 | 11 | 39 | 1.6 | 4.8 | 0.00 | 0.00 | 0.00 | 43 | 1012.3 |
| 20260507225102 | 11 | 261 | 1.6 | 4.8 | 0.00 | 0.00 | 0.00 | 42 | 1012.1 |
| 20260507224607 | 12 | 0 | 1.6 | 4.8 | 0.00 | 0.00 | 0.00 | 44 | 1012.2 |
| 20260507224101 | 12 | 258 | 0.0 | 6.4 | 0.00 | 0.00 | 0.00 | 45 | 1012.3 |
| 20260507223600 | 12 | 0 | 0.0 | 6.4 | 0.00 | 0.00 | 0.00 | 45 | 1012.3 |
| 20260507223058 | 11 | 253 | 1.6 | 6.4 | 0.00 | 0.00 | 0.00 | 44 | 1012.3 |
| 20260507222602 | 11 | 216 | 1.6 | 6.4 | 0.00 | 0.00 | 0.00 | 41 | 1012.2 |
| 20260507222100 | 11 | 301 | 1.6 | 8.0 | 0.00 | 0.00 | 0.00 | 47 | 1012.3 |
| 20260507221600 | 11 | 40 | 1.6 | 8.0 | 0.00 | 0.00 | 0.00 | 46 | 1012.2 |
| 20260507221059 | 11 | 278 | 1.6 | 8.0 | 0.00 | 0.00 | 0.00 | 48 | 1012.3 |
| 20260507220601 | 12 | 277 | 1.6 | 8.0 | 0.00 | 0.00 | 0.00 | 48 | 1012.3 |
| 20260507220101 | 12 | 270 | 0.0 | 6.4 | 0.00 | 0.00 | 0.00 | 51 | 1012.2 |
| 20260507215600 | 12 | 217 | 1.6 | 4.8 | 0.00 | 0.00 | 0.00 | 50 | 1012.2 |
| 20260507215102 | 12 | 271 | 1.6 | 4.8 | 0.00 | 0.00 | 0.00 | 52 | 1012.1 |
| 20260507214610 | 12 | 289 | 1.6 | 4.8 | 0.00 | 0.00 | 0.00 | 52 | 1012.1 |
| 20260507214100 | 12 | 290 | 1.6 | 3.2 | 0.00 | 0.00 | 0.00 | 53 | 1012.1 |
| 20260507213601 | 11 | 51 | 0.0 | 3.2 | 0.00 | 0.00 | 0.00 | 55 | 1012.0 |
| 20260507213109 | 11 | 271 | 0.0 | 4.8 | 0.00 | 0.00 | 0.00 | 55 | 1011.9 |
| 20260507212600 | 11 | 356 | 0.0 | 4.8 | 0.00 | 0.00 | 0.00 | 56 | 1011.9 |
| 20260507212100 | 11 | 257 | 1.6 | 4.8 | 0.00 | 0.00 | 0.00 | 56 | 1011.9 |
| 20260507211558 | 11 | 55 | 1.6 | 3.2 | 0.00 | 0.00 | 0.00 | 57 | 1011.9 |
| 20260507211059 | 11 | 13 | 1.6 | 3.2 | 0.00 | 0.00 | 0.00 | 56 | 1011.9 |
| 20260507210600 | 11 | 326 | 1.6 | 4.8 | 0.00 | 0.00 | 0.00 | 57 | 1011.9 |
| 20260507210059 | 11 | 264 | 1.6 | 4.8 | 0.00 | 0.00 | 0.00 | 56 | 1011.9 |
| 20260507205600 | 11 | 339 | 1.6 | 4.8 | 0.00 | 0.00 | 0.00 | 56 | 1011.9 |
| 20260507205059 | 11 | 0 | 1.6 | 4.8 | 0.00 | 0.00 | 0.00 | 54 | 1012.0 |
| 20260507204612 | 11 | 320 | 1.6 | 6.4 | 0.00 | 0.00 | 0.00 | 53 | 1011.8 |
| 20260507204059 | 12 | 0 | 1.6 | 6.4 | 0.00 | 0.00 | 0.00 | 53 | 1011.7 |
| 20260507203559 | 12 | 56 | 1.6 | 6.4 | 0.00 | 0.00 | 0.00 | 52 | 1011.7 |
| 20260507203058 | 12 | 0 | 0.0 | 3.2 | 0.00 | 0.00 | 0.00 | 54 | 1011.6 |
| 20260507202602 | 11 | 11 | 0.0 | 3.2 | 0.00 | 0.00 | 0.00 | 54 | 1011.7 |
| 20260507202059 | 11 | 265 | 0.0 | 4.8 | 0.00 | 0.00 | 0.00 | 54 | 1011.6 |
| 20260507201600 | 11 | 264 | 1.6 | 4.8 | 0.00 | 0.00 | 0.00 | 54 | 1011.7 |
| 20260507201059 | 11 | 226 | 1.6 | 4.8 | 0.00 | 0.00 | 0.00 | 54 | 1011.6 |
| 20260507200559 | 12 | 0 | 0.0 | 4.8 | 0.00 | 0.00 | 0.00 | 50 | 1011.6 |
| 20260507200101 | 12 | 297 | 1.6 | 8.0 | 0.00 | 0.00 | 0.00 | 51 | 1011.6 |
| 20260507195600 | 12 | 299 | 0.0 | 8.0 | 0.00 | 0.00 | 0.00 | 54 | 1011.6 |
| 20260507195100 | 12 | 4 | 1.6 | 8.0 | 0.00 | 0.00 | 0.00 | 51 | 1011.7 |
| 20260507194558 | 12 | 308 | 1.6 | 6.4 | 0.00 | 0.00 | 0.00 | 50 | 1011.8 |
| 20260507194059 | 12 | 27 | 1.6 | 4.8 | 0.00 | 0.00 | 0.00 | 49 | 1011.8 |
| 20260507193559 | 12 | 274 | 1.6 | 4.8 | 0.00 | 0.00 | 0.00 | 48 | 1011.9 |
| 20260507193110 | 12 | 248 | 1.6 | 4.8 | 0.00 | 0.00 | 0.00 | 50 | 1011.9 |
| 20260507192559 | 12 | 292 | 1.6 | 8.0 | 0.00 | 0.00 | 0.00 | 47 | 1011.9 |
| 20260507192100 | 12 | 38 | 0.0 | 8.0 | 0.00 | 0.00 | 0.00 | 51 | 1011.8 |
| 20260507191601 | 12 | 21 | 3.2 | 8.0 | 0.00 | 0.00 | 0.00 | 47 | 1012.0 |
| 20260507191100 | 12 | 13 | 1.6 | 4.8 | 0.00 | 0.00 | 0.00 | 48 | 1011.9 |
| 20260507190600 | 12 | 292 | 1.6 | 4.8 | 0.00 | 0.00 | 0.00 | 48 | 1011.9 |
| 20260507190105 | 12 | 352 | 0.0 | 4.8 | 0.00 | 0.00 | 0.00 | 49 | 1012.0 |
| 20260507185559 | 12 | 297 | 0.0 | 4.8 | 0.00 | 0.00 | 0.00 | 52 | 1012.1 |
| 20260507185100 | 11 | 0 | 1.6 | 4.8 | 0.00 | 0.00 | 0.00 | 51 | 1012.0 |
| 20260507184559 | 11 | 344 | 0.0 | 4.8 | 0.00 | 0.00 | 0.00 | 49 | 1012.0 |
| 20260507184100 | 12 | 333 | 1.6 | 4.8 | 0.00 | 0.00 | 0.00 | 49 | 1012.1 |
| 20260507183559 | 12 | 0 | 0.0 | 4.8 | 0.00 | 0.00 | 0.00 | 50 | 1012.0 |
| 20260507183111 | 12 | 321 | 1.6 | 4.8 | 0.00 | 0.00 | 0.00 | 50 | 1012.1 |
| 20260507182600 | 12 | 264 | 0.0 | 4.8 | 0.00 | 0.00 | 0.00 | 53 | 1011.9 |
| 20260507182101 | 12 | 286 | 0.0 | 4.8 | 0.00 | 0.00 | 0.00 | 51 | 1012.0 |
| 20260507181059 | 12 | 39 | 1.6 | 6.4 | 0.00 | 0.00 | 0.00 | 48 | 1012.0 |
| 20260507180600 | 13 | 331 | 1.6 | 6.4 | 0.00 | 0.00 | 0.00 | 50 | 1011.9 |
| 20260507180106 | 13 | 34 | 3.2 | 6.4 | 0.00 | 0.00 | 0.00 | 51 | 1012.0 |
| 20260507175559 | 13 | 358 | 1.6 | 4.8 | 0.00 | 0.00 | 0.00 | 53 | 1011.9 |
| 20260507175100 | 12 | 63 | 1.6 | 4.8 | 0.00 | 0.00 | 0.00 | 53 | 1011.9 |
| 20260507174559 | 12 | 60 | 1.6 | 6.4 | 0.00 | 0.00 | 0.00 | 54 | 1011.9 |
| 20260507174059 | 12 | 319 | 1.6 | 6.4 | 0.00 | 0.00 | 0.00 | 52 | 1012.0 |
| 20260507173559 | 13 | 271 | 1.6 | 6.4 | 0.00 | 0.00 | 0.00 | 53 | 1012.0 |
| 20260507173101 | 12 | 286 | 1.6 | 6.4 | 0.00 | 0.00 | 0.00 | 52 | 1011.9 |
| 20260507172604 | 12 | 53 | 0.0 | 4.8 | 0.00 | 0.00 | 0.00 | 54 | 1011.9 |
| 20260507172059 | 12 | 283 | 1.6 | 3.2 | 0.00 | 0.00 | 0.00 | 51 | 1011.9 |
| 20260507171604 | 12 | 7 | 0.0 | 3.2 | 0.00 | 0.00 | 0.00 | 48 | 1011.9 |
| 20260507171101 | 12 | 271 | 0.0 | 3.2 | 0.00 | 0.00 | 0.00 | 51 | 1012.0 |
| 20260507170603 | 12 | 293 | 0.0 | 4.8 | 0.00 | 0.00 | 0.00 | 50 | 1012.0 |
| 20260507165600 | 12 | 38 | 1.6 | 4.8 | 0.00 | 0.00 | 0.00 | 46 | 1011.9 |
| 20260507165100 | 13 | 0 | 0.0 | 3.2 | 0.00 | 0.00 | 0.00 | 47 | 1012.0 |
| 20260507164601 | 13 | 244 | 1.6 | 4.8 | 0.00 | 0.00 | 0.00 | 43 | 1012.0 |
| 20260507164101 | 13 | 252 | 1.6 | 4.8 | 0.00 | 0.00 | 0.00 | 45 | 1012.0 |
| 20260507163605 | 13 | 289 | 0.0 | 4.8 | 0.00 | 0.00 | 0.00 | 46 | 1012.0 |
| 20260507163105 | 13 | 18 | 0.0 | 8.0 | 0.00 | 0.00 | 0.00 | 44 | 1012.0 |
| 20260507162601 | 12 | 247 | 1.6 | 8.0 | 0.00 | 0.00 | 0.00 | 44 | 1012.0 |
| 20260507162105 | 13 | 11 | 1.6 | 4.8 | 0.00 | 0.00 | 0.00 | 45 | 1011.9 |
| 20260507161611 | 12 | 254 | 0.0 | 4.8 | 0.00 | 0.00 | 0.00 | 47 | 1012.0 |
| 20260507161100 | 12 | 207 | 0.0 | 6.4 | 0.00 | 0.00 | 0.00 | 43 | 1012.0 |
| 20260507160601 | 12 | 38 | 1.6 | 6.4 | 0.00 | 0.00 | 0.00 | 42 | 1011.9 |
| 20260507160105 | 12 | 86 | 0.0 | 3.2 | 0.00 | 0.00 | 0.00 | 45 | 1012.0 |
| 20260507155601 | 12 | 245 | 0.0 | 3.2 | 0.00 | 0.00 | 0.00 | 46 | 1012.1 |
| 20260507155100 | 11 | 0 | 0.0 | 3.2 | 0.00 | 0.00 | 0.00 | 46 | 1012.1 |
| 20260507154558 | 12 | 288 | 0.0 | 3.2 | 0.00 | 0.00 | 0.00 | 45 | 1012.2 |
| 20260507154100 | 12 | 0 | 0.0 | 3.2 | 0.00 | 0.00 | 0.00 | 46 | 1012.2 |
| 20260507153600 | 12 | 0 | 1.6 | 3.2 | 0.00 | 0.00 | 0.00 | 46 | 1012.3 |
| 20260507153058 | 12 | 1 | 0.0 | 3.2 | 0.00 | 0.00 | 0.00 | 49 | 1012.3 |
| 20260507152600 | 12 | 45 | 1.6 | 3.2 | 0.00 | 0.00 | 0.00 | 49 | 1012.3 |
| 20260507152059 | 12 | 0 | 0.0 | 3.2 | 0.00 | 0.00 | 0.00 | 49 | 1012.3 |
| 20260507151559 | 12 | 129 | 0.0 | 1.6 | 0.00 | 0.00 | 0.00 | 51 | 1012.3 |
| 20260507151100 | 12 | 272 | 0.0 | 1.6 | 0.00 | 0.00 | 0.00 | 52 | 1012.4 |
| 20260507150600 | 12 | 0 | 0.0 | 1.6 | 0.00 | 0.00 | 0.00 | 50 | 1012.4 |
| 20260507150058 | 12 | 265 | 0.0 | 3.2 | 0.00 | 0.00 | 0.00 | 49 | 1012.4 |
| 20260507145600 | 12 | 290 | 1.6 | 3.2 | 0.00 | 0.00 | 0.00 | 51 | 1012.3 |
| 20260507145100 | 11 | 250 | 0.0 | 6.4 | 0.00 | 0.00 | 0.00 | 50 | 1012.4 |
| 20260507144559 | 11 | 275 | 1.6 | 6.4 | 0.00 | 0.00 | 0.00 | 49 | 1012.5 |
| 20260507144101 | 11 | 260 | 1.6 | 3.2 | 0.00 | 0.00 | 0.00 | 52 | 1012.5 |
| 20260507143603 | 11 | 247 | 0.0 | 4.8 | 0.00 | 0.00 | 0.00 | 52 | 1012.4 |
| 20260507143102 | 11 | 240 | 1.6 | 4.8 | 0.00 | 0.00 | 0.00 | 53 | 1012.5 |
| 20260507142601 | 11 | 0 | 1.6 | 3.2 | 0.00 | 0.00 | 0.00 | 49 | 1012.6 |
| 20260507142059 | 11 | 0 | 0.0 | 3.2 | 0.00 | 0.00 | 0.00 | 53 | 1012.6 |
| 20260507141603 | 11 | 252 | 0.0 | 3.2 | 0.00 | 0.00 | 0.00 | 55 | 1012.7 |
| 20260507141059 | 11 | 259 | 0.0 | 3.2 | 0.00 | 0.00 | 0.00 | 55 | 1012.7 |
| 20260507140559 | 11 | 252 | 0.0 | 3.2 | 0.00 | 0.00 | 0.00 | 56 | 1012.8 |
| 20260507140125 | 11 | 254 | 0.0 | 3.2 | 0.00 | 0.00 | 0.00 | 58 | 1012.8 |
| 20260507135600 | 10 | 0 | 0.0 | 3.2 | 0.00 | 0.00 | 0.00 | 57 | 1012.8 |
| 20260507135059 | 10 | 283 | 0.0 | 1.6 | 0.00 | 0.00 | 0.00 | 59 | 1012.9 |
| 20260507134558 | 10 | 349 | 0.0 | 1.6 | 0.00 | 0.00 | 0.00 | 62 | 1013.0 |
| 20260507134059 | 10 | 354 | 0.0 | 3.2 | 0.00 | 0.00 | 0.00 | 64 | 1013.1 |
| 20260507133558 | 10 | 0 | 0.0 | 3.2 | 0.00 | 0.00 | 0.00 | 65 | 1013.1 |
| 20260507133100 | 10 | 44 | 0.0 | 3.2 | 0.00 | 0.00 | 0.00 | 66 | 1013.1 |
| 20260507132559 | 10 | 292 | 0.0 | 1.6 | 0.00 | 0.00 | 0.00 | 67 | 1013.1 |
| 20260507132059 | 10 | 282 | 0.0 | 1.6 | 0.00 | 0.00 | 0.00 | 68 | 1013.2 |
| 20260507131614 | 10 | 0 | 0.0 | 0.0 | 0.00 | 0.00 | 0.00 | 72 | 1013.1 |
| 20260507131059 | 9 | 0 | 0.0 | 0.0 | 0.00 | 0.00 | 0.00 | 70 | 1013.1 |
| 20260507130559 | 9 | 0 | 0.0 | 0.0 | 0.00 | 0.00 | 0.00 | 73 | 1013.1 |
| 20260507130111 | 9 | 0 | 0.0 | 0.0 | 0.00 | 0.00 | 0.00 | 72 | 1013.0 |
| 20260507125559 | 8 | 0 | 0.0 | 0.0 | 0.00 | 0.00 | 0.00 | 73 | 1013.0 |
| 20260507125058 | 8 | 0 | 0.0 | 0.0 | 0.00 | 0.00 | 0.00 | 72 | 1013.0 |
| 20260507124612 | 8 | 0 | 0.0 | 0.0 | 0.00 | 0.00 | 0.00 | 73 | 1013.1 |
| 20260507124059 | 8 | 0 | 0.0 | 0.0 | 0.00 | 0.00 | 0.00 | 73 | 1013.0 |
| 20260507123559 | 8 | 0 | 0.0 | 0.0 | 0.00 | 0.00 | 0.00 | 75 | 1013.1 |
| 20260507123101 | 8 | 0 | 0.0 | 0.0 | 0.00 | 0.00 | 0.00 | 75 | 1013.0 |
| 20260507122559 | 8 | 0 | 0.0 | 0.0 | 0.00 | 0.00 | 0.00 | 76 | 1013.0 |
| 20260507122104 | 7 | 0 | 0.0 | 0.0 | 0.00 | 0.00 | 0.00 | 77 | 1013.0 |
| 20260507121602 | 7 | 0 | 0.0 | 0.0 | 0.00 | 0.00 | 0.00 | 77 | 1013.0 |
| 20260507121059 | 7 | 0 | 0.0 | 0.0 | 0.00 | 0.00 | 0.00 | 77 | 1013.0 |
| 20260507120559 | 7 | 0 | 0.0 | 0.0 | 0.00 | 0.00 | 0.00 | 79 | 1013.0 |
| 20260507115559 | 6 | 0 | 0.0 | 0.0 | 0.00 | 0.00 | 0.00 | 82 | 1013.1 |
| 20260507115059 | 6 | 0 | 0.0 | 0.0 | 0.00 | 0.00 | 0.00 | 83 | 1013.0 |
| 20260507114606 | 6 | 0 | 0.0 | 0.0 | 0.00 | 0.00 | 0.00 | 85 | 1013.0 |
| 20260507114101 | 5 | 0 | 0.0 | 0.0 | 0.00 | 0.00 | 0.00 | 86 | 1013.0 |
| 20260507113559 | 5 | 0 | 0.0 | 0.0 | 0.00 | 0.00 | 0.00 | 88 | 1013.1 |
| 20260507113103 | 5 | 0 | 0.0 | 0.0 | 0.00 | 0.00 | 0.00 | 89 | 1013.1 |
| 20260507112559 | 5 | 0 | 0.0 | 0.0 | 0.00 | 0.00 | 0.00 | 89 | 1013.0 |
| 20260507112100 | 4 | 0 | 0.0 | 0.0 | 0.00 | 0.00 | 0.00 | 90 | 1012.9 |
| 20260507111559 | 4 | 0 | 0.0 | 0.0 | 0.00 | 0.00 | 0.00 | 90 | 1012.9 |
| 20260507111100 | 4 | 0 | 0.0 | 0.0 | 0.00 | 0.00 | 0.00 | 90 | 1012.9 |
| 20260507110600 | 4 | 0 | 0.0 | 0.0 | 0.00 | 0.00 | 0.00 | 89 | 1013.0 |
| 20260507110059 | 4 | 0 | 0.0 | 0.0 | 0.00 | 0.00 | 0.00 | 89 | 1012.9 |
| 20260507105600 | 3 | 0 | 0.0 | 0.0 | 0.00 | 0.03 | 0.00 | 89 | 1012.9 |
| 20260507105100 | 3 | 0 | 0.0 | 0.0 | 0.00 | 0.03 | 0.00 | 89 | 1012.8 |
| 20260507104557 | 3 | 0 | 0.0 | 0.0 | 0.00 | 0.03 | 0.00 | 89 | 1012.8 |
| 20260507104100 | 4 | 0 | 0.0 | 0.0 | 0.00 | 0.03 | 0.00 | 89 | 1012.6 |
| 20260507103559 | 4 | 0 | 0.0 | 0.0 | 0.00 | 0.03 | 0.00 | 89 | 1012.7 |
| 20260507103059 | 4 | 0 | 0.0 | 0.0 | 0.00 | 0.03 | 0.00 | 89 | 1012.6 |
| 20260507102602 | 4 | 0 | 0.0 | 0.0 | 0.00 | 0.03 | 0.00 | 89 | 1012.5 |
| 20260507102101 | 4 | 0 | 0.0 | 0.0 | 0.00 | 0.03 | 0.00 | 89 | 1012.5 |
| 20260507101601 | 4 | 0 | 0.0 | 0.0 | 0.00 | 0.03 | 0.00 | 90 | 1012.5 |
| 20260507101100 | 4 | 0 | 0.0 | 0.0 | 0.00 | 0.03 | 0.00 | 89 | 1012.5 |
| 20260507100600 | 4 | 0 | 0.0 | 0.0 | 0.00 | 0.03 | 0.00 | 90 | 1012.5 |
| 20260507100059 | 4 | 0 | 0.0 | 0.0 | 0.00 | 0.03 | 0.00 | 89 | 1012.5 |
| 20260507095601 | 4 | 0 | 0.0 | 0.0 | 0.00 | 0.25 | 0.00 | 89 | 1012.5 |
| 20260507095102 | 4 | 0 | 0.0 | 0.0 | 0.00 | 0.25 | 0.00 | 90 | 1012.5 |
| 20260507094557 | 4 | 0 | 0.0 | 0.0 | 0.00 | 0.25 | 0.00 | 90 | 1012.4 |
| 20260507094100 | 4 | 0 | 0.0 | 0.0 | 0.00 | 0.25 | 0.00 | 90 | 1012.5 |
| 20260507093600 | 3 | 0 | 0.0 | 0.0 | 0.00 | 0.25 | 0.00 | 90 | 1012.5 |
| 20260507093058 | 3 | 0 | 0.0 | 0.0 | 0.00 | 0.25 | 0.00 | 90 | 1012.7 |
| 20260507092600 | 3 | 0 | 0.0 | 0.0 | 0.00 | 0.25 | 0.00 | 90 | 1012.7 |
| 20260507092100 | 3 | 0 | 0.0 | 0.0 | 0.00 | 0.25 | 0.00 | 90 | 1012.7 |
| 20260507091606 | 3 | 0 | 0.0 | 0.0 | 0.00 | 0.25 | 0.00 | 90 | 1012.7 |
| 20260507091101 | 3 | 0 | 0.0 | 0.0 | 0.00 | 0.25 | 0.00 | 91 | 1012.7 |
| 20260507090600 | 3 | 0 | 0.0 | 0.0 | 0.00 | 0.25 | 0.00 | 91 | 1012.7 |
| 20260507090100 | 3 | 0 | 0.0 | 0.0 | 0.00 | 0.25 | 0.00 | 91 | 1012.8 |
| 20260507085600 | 3 | 0 | 0.0 | 0.0 | 0.00 | 0.46 | 0.00 | 91 | 1012.8 |
| 20260507085101 | 3 | 0 | 0.0 | 0.0 | 0.00 | 0.46 | 0.00 | 90 | 1012.8 |
| 20260507084559 | 3 | 0 | 0.0 | 0.0 | 0.00 | 0.46 | 0.00 | 90 | 1012.8 |
| 20260507084100 | 3 | 0 | 0.0 | 0.0 | 0.00 | 0.46 | 0.00 | 90 | 1012.8 |
| 20260507083600 | 3 | 0 | 0.0 | 0.0 | 0.00 | 0.46 | 0.00 | 90 | 1012.8 |
| 20260507083104 | 3 | 0 | 0.0 | 0.0 | 0.00 | 0.46 | 0.00 | 90 | 1012.8 |
| 20260507082601 | 3 | 0 | 0.0 | 0.0 | 0.00 | 0.46 | 0.00 | 90 | 1012.8 |
| 20260507082100 | 3 | 0 | 0.0 | 0.0 | 0.00 | 0.46 | 0.00 | 90 | 1012.9 |
| 20260507081559 | 3 | 0 | 0.0 | 0.0 | 0.00 | 0.46 | 0.00 | 90 | 1012.9 |
| 20260507081100 | 3 | 0 | 0.0 | 0.0 | 0.00 | 0.46 | 0.00 | 89 | 1012.8 |
| 20260507080600 | 3 | 0 | 0.0 | 0.0 | 0.00 | 0.46 | 0.00 | 89 | 1012.9 |
| 20260507080135 | 3 | 0 | 0.0 | 0.0 | 0.00 | 0.46 | 0.00 | 89 | 1012.9 |
| 20260507075601 | 3 | 0 | 0.0 | 0.0 | 0.00 | 0.89 | 0.00 | 89 | 1012.9 |
| 20260507075101 | 3 | 0 | 0.0 | 0.0 | 0.00 | 0.89 | 0.00 | 89 | 1012.9 |
| 20260507074605 | 3 | 0 | 0.0 | 0.0 | 0.00 | 0.89 | 0.00 | 89 | 1012.9 |
| 20260507074100 | 4 | 0 | 0.0 | 0.0 | 0.00 | 0.89 | 0.00 | 88 | 1012.9 |
| 20260507073600 | 4 | 0 | 0.0 | 0.0 | 0.00 | 0.89 | 0.00 | 88 | 1012.9 |
| 20260507073111 | 4 | 0 | 0.0 | 0.0 | 0.00 | 0.89 | 0.00 | 88 | 1012.9 |
| 20260507072601 | 4 | 0 | 0.0 | 0.0 | 0.00 | 0.89 | 0.00 | 87 | 1012.9 |
| 20260507072100 | 4 | 0 | 0.0 | 0.0 | 0.00 | 0.89 | 0.00 | 87 | 1013.0 |
| 20260507071613 | 4 | 0 | 0.0 | 0.0 | 0.00 | 0.89 | 0.00 | 87 | 1012.9 |
| 20260507071101 | 4 | 0 | 0.0 | 0.0 | 0.00 | 0.89 | 0.00 | 87 | 1012.9 |
| 20260507070600 | 4 | 0 | 0.0 | 0.0 | 0.00 | 0.89 | 0.00 | 86 | 1012.9 |
| 20260507065600 | 5 | 0 | 0.0 | 0.0 | 0.00 | 1.17 | 0.00 | 86 | 1013.0 |
| 20260507065100 | 5 | 0 | 0.0 | 0.0 | 0.00 | 1.17 | 0.00 | 86 | 1013.2 |
| 20260507064600 | 5 | 0 | 0.0 | 0.0 | 0.00 | 1.17 | 0.00 | 85 | 1013.1 |
| 20260507064100 | 5 | 0 | 0.0 | 0.0 | 0.00 | 1.17 | 0.00 | 85 | 1013.1 |
| 20260507063601 | 5 | 0 | 0.0 | 0.0 | 0.00 | 1.17 | 0.00 | 85 | 1013.2 |
| 20260507063102 | 5 | 0 | 0.0 | 0.0 | 0.00 | 1.17 | 0.00 | 85 | 1013.2 |
| 20260507062600 | 5 | 0 | 0.0 | 0.0 | 0.00 | 1.17 | 0.00 | 85 | 1013.3 |
| 20260507062101 | 5 | 0 | 0.0 | 0.0 | 0.00 | 1.17 | 0.00 | 84 | 1013.4 |
| 20260507061559 | 5 | 0 | 0.0 | 0.0 | 0.00 | 1.17 | 0.00 | 84 | 1013.5 |
| 20260507061101 | 5 | 0 | 0.0 | 0.0 | 0.00 | 1.17 | 0.00 | 84 | 1013.4 |
| 20260507060600 | 5 | 0 | 0.0 | 0.0 | 0.00 | 1.17 | 0.00 | 83 | 1013.5 |
| 20260507060103 | 5 | 0 | 0.0 | 0.0 | 0.00 | 1.17 | 0.00 | 83 | 1013.5 |
| 20260507055600 | 5 | 0 | 0.0 | 0.0 | 0.00 | 1.37 | 0.00 | 83 | 1013.5 |